Погода в Кировограде

Погода в Кировограде : погода сейчас, прогноз погоды и архив. Всё, что Вы хотите узнать о погоде в Кировограде!

Хотите узнать прогноз погоды в Кировограде? Тогда Вам сюда: Погода в Кировограде

Поиск расширенной информации на нашем сайте:

Другие новости

Новости СМИ2

Главная страница сайта

Новости сайта

02.10.2013

Напоминаем, что на нашем новом сайте вы можете получить высокодетализированные прогнозы погоды по пунктам России, СНГ и мира (включающие важные для авиации метеовеличины, такие как направление и скорость ветра, видимость, явления погоды, количество и форма облачности, нижняя и верхняя граница облачности), а также ознакомиться с разнообразными материалами по авиационной метеорологии и подборкой полезных ссылок на эту тему.

Сайт Метеоцентр.Азия посвящён разработке технологий оптимизации авиаметеорологического обслуживания, включая проектирование и перспективное создание нескольких автоматизированных авиаметеорологических систем:
- система выпуска высокодетальных прогностических карт явлений погоды для нижнего воздушного пространства по России и ближнему зарубежью;
- система верификации прогнозов TAF (выпускаемых синоптиками официальных АМСГ РФ и ближнего зарубежья) и AUTOTAF (выпускаемых сайтом Метеоцентр.Азия) - выявление ошибок, онлайн-сопоставление с фактической погодой METAR, автоматическое внесение коррективов в прогнозы при резком отклонении фактической погоды от прогноза, подсчёт оправдываемости прогнозов по элементам и в целом;
- система обработки, анализа и отображения авиаметеорологической информации для применения провайдерами метеорологической информации.

Рекомендуем: Банкетный зал на 100 человек monaco банкетный зал на 120 человек.

Погода в Кировограде - сегодня

Время (UTC), дата Ветер
(°,м/с) 
Видим.   Явления Облачность Т
(°С)
Тd
(°С)
f(%) Тe
(°С)
Pmin
(гПа)
dP
(гПа)
Po
(мм)
O2
(г/м3)
Тmin Tmax R s Состояние
почвы
18 24.03.17 320 (СЗ) 4000 м    10/6 500 м кучево-дожд., средняя 
[Cb calv|Ac As]
+12.2 +6.8 70 +11  1018.8  1.8  749  288    +18.7       
21 24.03.17 340 (С) 4000 м    10/10 570 м кучево-дожд. 
[Cb calv]
+9 +5.9 81 +7  1020.3  1.3  750  291           
00 25.03.17 330 (СЗ) 4000 м    4/4 900 м 
[Sc]
+5.3 +2.1 80 +3  1021.7  750  296           
03 25.03.17 310 (СЗ) 4000 м    3/0 верхняя 
[Ci fib]
+2.6 +1.3 91 +1  1022.4  0.5  751  299           
06 25.03.17 320 (СЗ) 20000 м    8/4 300 м верхняя 
[St|Ci fib]
+3.5 +1.4 86 +2  1022.7  0.4  751  299  +1.5         
09 25.03.17 350 (С) 20000 м    8/8 1000 м 
[Sc]
+7.8 -1.8 51 +7  1021.5  -0.9  750  294           
12 25.03.17 010 (С) 20000 м    8/4 1000 м верхняя 
[Sc|Ci fib]
+9 -6.1 34 +8  1019.6  -1.8  749  293           
15 25.03.17 310 (СЗ) 20000 м    10/4 1000 м верхняя 
[Sc|Ci fib]
+8.3 -7.9 31 +7  1017.7  -1.9  748  293           
18 25.03.17 290 (З) 4000 м    10/0 средняя, верхняя 
[Ac trans|Ci fib]
+5.4 -7.6 39 +6  1017.2  -0.7  747  296    +10.2       
21 25.03.17 050 (СВ) 4000 м    10/0 средняя 
[Ac As]
+4 -3.9 56 +5  1016.5  -0.8  746  297           
00 26.03.17 тихо ()   4000 м    10/0 средняя 
[Ac As]
+2.2 -4.5 61 +2  1014.8  -1.8  745  298           
06 26.03.17 090 (В) 20000 м    10/0 средняя, верхняя 
[Ac trans|Ci fib]
+3.1 -3.7 61 +3  1014.4  0.4  745  297  +1.3         
09 26.03.17 050 (СВ) 20000 м    10/0 средняя, верхняя 
[Ac trans|Ci fib]
+7.1 -4.3 44 +6  1014.8  0.7  745  293           
12 26.03.17 070 (В) 20000 м    9/9 1000 м кучево-дожд. 
[Cb calv]
+7.6 -6.4 36 +7  1015.1  0.3  746  293           
15 26.03.17 030 (СВ) 20000 м    9/4 1000 м кучево-дожд., средняя 
[Cb calv|Ac trans]
+6.9 -5.8 40 +6  1016.5  1.3  747  294           
18 26.03.17 360 (С) 4000 м    9/0 средняя 
[Ac trans]
+5 -4 52 +5  1018.2  1.6  748  296    +8.4       
21 26.03.17 360 (С) 4000 м    ясно 
+0.8 -3.8 71 1019.4  0.8  748  301           
00 27.03.17 300 (СЗ) 4000 м    3/0 средняя 
[Ac trans]
-0.4 -3.5 80 -2  1018.9  -0.6  748  302           
03 27.03.17 300 (СЗ) 4000 м    6/0 верхняя 
[Ci fib]
-1.3 -2.4 92 -3  1017.2  -1.7  747  303           
06 27.03.17 280 (З) 20000 м    10/0 средняя, верхняя 
[Ac As|Ci fib]
+1.7 -1.4 80 -2  1015.2  -1.7  745  299  -1.6         
09 27.03.17 290 (З) 20000 м  слаб. ливневой дождь  10/10 500 м кучево-дожд. 
[Cb calv]
+3.5 -0.8 73 1013.2  -1.8  744  296           
12 27.03.17 320 (СЗ) 20000 м  {ливн. осадки}  10/10 1000 м кучево-дожд. 
[Cb calv]
+7.4 -0.6 57 +5  1011.8  -1.1  743  292      0.0     
15 27.03.17 330 (СЗ) 20000 м    8/8 1200 м 
[Sc]
+10.4 -0.9 45 +9  1012  0.4  744  289           
18 27.03.17 300 (СЗ) 4000 м    ясно 
+6.2 -2.6 53 +6  1014  1.7  745  294    +12  0.0     
21 27.03.17 270 (З) 4000 м    ясно 
+3.7 -2.5 64 +3  1015.4  1.1  746  297           
Время (UTC), дата Ветер
(°,м/с) 
Видим.   Явления Облачность Т
(°С)
Тd
(°С)
f(%) Тe
(°С)
Pmin
(гПа)
dP
(гПа)
Po
(мм)
O2
(г/м3)
Тmin Tmax R s Состояние
почвы

Для получения пояснительной информации подведите курсор к названию столбца.

ПОГОДА в Кировограде - архив

Всё, что Вы хотите узнать о погоде в Кировограде - удобно и подробно!

Выберите нужную дату (начиная с 1 января 2015* года) и нажмите кнопку "Найти".
Будут отображены архивные сводки погоды по пункту Кировоград, начиная с указанной даты.


Отображать данные в формате CSV (для использования в таблицах Excel)


Внимание! Наш архив погоды предназначен исключительно для личного некоммерческого использования в познавательных целях. Если Вам необходимы официальные справки о состоянии погоды (для производственных, юридических, коммерческих и т.п. целей), обращайтесь в органы Росгидромета.

*Примечание: данная дата относится к архиву по метеостанциям СССР (Россия, СНГ, Балтия).
Архив по метеостанциям Зарубежной Европы и Азии (кроме Китая) хранится 10 дней, по другим регионам земного шара (Китай, Африка, Америка, Австралия, Океания) - 1 день.

Кировоград - район местоположения метеостанции


Название, широта, долгота, высота метеостанции:
Кировоград 48.5°ш. 32.2°д. 171 м над ур. моря [Украина]

Дополнительная информация

В oтличие oт бoльшинства пoгoдных сайтoв мы публикуем пoдрoбную метеoинфoрмацию в детальнoм прoфессиoнальнoм фoрмате.

Характеристики температуры и влажнoсти вoздуха измеряются на высoте 2 м в тени вдали oт зданий и деревьев.
Скoрoсть ветра измеряется на высoте 10 м (на урoвне рoста челoвека скoрoсть ветра ниже в 1.5-2 раза). Если метеoстанция нахoдится в гoрoде или в лесу, тo скoрoсть ветра занижена на 2-4 м/с пo сравнению с oткрытым местoм. Скoрoсть ветра над акватoриями крупных рек и oзёр, а также на вершинах хoлмoв на 2-5 м/с выше, чем в oбычных услoвиях.
Атмoсфернoе давление в разных тoчках местнoсти мoжет значительнo oтличаться oт давления на метеoстанции, в зависимoсти oт услoвий рельефа (при пoдъёме на 10 м давление пoнижается примернo на 1 мм рт.ст.).